TimeEDT,TemperatureF,Dew PointF,Humidity,Sea Level PressureIn,VisibilityMPH,Wind Direction,Wind SpeedMPH,Gust SpeedMPH,PrecipitationIn,Events,Conditions,WindDirDegrees,DateUTC
12:53 AM,64.0,59.0,84,30.11,10.0,North,4.6,-,N/A,,Mostly Cloudy,350,2013-08-11 04:53:00
1:53 AM,62.1,57.9,86,30.11,4.0,Calm,Calm,-,N/A,,Clear,0,2013-08-11 05:53:00
2:53 AM,60.1,57.0,90,30.11,6.0,Calm,Calm,-,N/A,,Clear,0,2013-08-11 06:53:00
3:53 AM,60.1,57.0,90,30.11,7.0,Calm,Calm,-,N/A,,Clear,0,2013-08-11 07:53:00
4:53 AM,59.0,55.9,90,30.11,6.0,Calm,Calm,-,N/A,,Clear,0,2013-08-11 08:53:00
5:53 AM,57.9,55.9,93,30.12,6.0,Calm,Calm,-,N/A,,Clear,0,2013-08-11 09:53:00
6:20 AM,59.0,55.4,88,30.13,2.0,Calm,Calm,-,N/A,,Clear,0,2013-08-11 10:20:00
6:30 AM,57.2,55.4,94,30.13,5.0,Calm,Calm,-,N/A,,Clear,0,2013-08-11 10:30:00
6:53 AM,57.9,55.0,90,30.12,5.0,Calm,Calm,-,N/A,,Partly Cloudy,0,2013-08-11 10:53:00
7:53 AM,61.0,57.9,90,30.11,5.0,Calm,Calm,-,N/A,,Clear,0,2013-08-11 11:53:00
8:53 AM,66.0,62.1,87,30.13,7.0,Calm,Calm,-,N/A,,Clear,0,2013-08-11 12:53:00
9:53 AM,70.0,62.1,76,30.13,10.0,Calm,Calm,-,N/A,,Overcast,0,2013-08-11 13:53:00
10:53 AM,73.0,62.1,68,30.13,10.0,NW,3.5,-,N/A,,Overcast,320,2013-08-11 14:53:00
11:53 AM,75.0,57.0,53,30.12,10.0,WNW,4.6,-,N/A,,Overcast,300,2013-08-11 15:53:00
12:53 PM,77.0,55.9,48,30.12,10.0,West,6.9,-,N/A,,Clear,280,2013-08-11 16:53:00
1:53 PM,75.0,57.0,53,30.12,10.0,WNW,6.9,-,N/A,,Scattered Clouds,300,2013-08-11 17:53:00
2:53 PM,79.0,57.0,47,30.11,10.0,West,6.9,-,N/A,,Scattered Clouds,280,2013-08-11 18:53:00
3:53 PM,78.1,57.0,48,30.10,10.0,West,5.8,-,N/A,,Clear,280,2013-08-11 19:53:00
4:53 PM,79.0,57.9,48,30.08,10.0,WSW,4.6,-,N/A,,Partly Cloudy,250,2013-08-11 20:53:00
5:53 PM,79.0,59.0,50,30.07,10.0,West,5.8,-,N/A,,Clear,270,2013-08-11 21:53:00
6:53 PM,77.0,60.1,56,30.07,10.0,WNW,4.6,-,N/A,,Overcast,300,2013-08-11 22:53:00
7:53 PM,75.0,61.0,62,30.06,10.0,WNW,3.5,-,N/A,,Clear,290,2013-08-11 23:53:00
8:53 PM,72.0,63.0,73,30.06,10.0,Calm,Calm,-,N/A,,Mostly Cloudy,0,2013-08-12 00:53:00
9:53 PM,69.1,64.0,84,30.07,10.0,Calm,Calm,-,N/A,,Scattered Clouds,0,2013-08-12 01:53:00
10:53 PM,69.1,64.0,84,30.08,10.0,Calm,Calm,-,N/A,,Clear,0,2013-08-12 02:53:00
11:53 PM,69.1,63.0,81,30.07,10.0,Calm,Calm,-,N/A,,Scattered Clouds,0,2013-08-12 03:53:00